OK3FM-14 Weather Reports


Display with metric or nautical units.
time (UTC)temp
F
wind
direction
speed
MPH
gust
MPH
rain 1hr
in
rain 24hr
in
rain mn
in
humidity
%
barometer
mb
20260903092743 70 0.0 0.0 0.00 0.00 0.00 45 1022.3
20260903091743 69 0.0 0.0 0.00 0.00 0.00 44 1022.6
20260903090743 69 0.0 0.0 0.00 0.00 0.00 43 1022.4
20260903084743 72 0.0 0.0 0.00 0.00 0.00 42 1022.3
20260903083743 72 0.0 0.0 0.00 0.00 0.00 41 1022.1
20260903082743 72 0.0 0.0 0.00 0.00 0.00 41 1022.1
20260903081743 72 0.0 0.0 0.00 0.00 0.00 40 1022.3
20260903080743 69 0.0 0.0 0.00 0.00 0.00 43 1022.4
20260903075743 70 0.0 0.0 0.00 0.00 0.00 43 1022.3
20260903074743 71 0.0 0.0 0.00 0.00 0.00 41 1022.4
20260903073743 76 0.0 0.0 0.00 0.00 0.00 37 1022.4
20260903072743 77 0.0 0.0 0.00 0.00 0.00 37 1022.5
20260903071743 76 0.0 0.0 0.00 0.00 0.00 38 1022.6
20260903070743 75 0.0 0.0 0.00 0.00 0.00 40 1022.6
20260903065743 76 0.0 0.0 0.00 0.00 0.00 40 1022.6
20260903064743 74 0.0 0.0 0.00 0.00 0.00 42 1022.6
20260903063743 74 0.0 0.0 0.00 0.00 0.00 44 1022.6
20260903062743 73 0.0 0.0 0.00 0.00 0.00 43 1022.6
20260903061743 74 0.0 0.0 0.00 0.00 0.00 43 1022.4
20260903060743 72 0.0 0.0 0.00 0.00 0.00 45 1022.4
20260903055744 71 0.0 0.0 0.00 0.00 0.00 48 1022.5
20260903054744 69 0.0 0.0 0.00 0.00 0.00 51 1022.4
20260903053743 67 0.0 0.0 0.00 0.00 0.00 56 1022.3
20260903052743 65 0.0 0.0 0.00 0.00 0.00 60 1022.3
20260903051743 62 0.0 0.0 0.00 0.00 0.00 64 1022.2
20260903050743 58 0.0 0.0 0.00 0.00 0.00 72 1022.2
20260903045743 57 0.0 0.0 0.00 0.00 0.00 75 1022.2
20260903043743 56 0.0 0.0 0.00 0.00 0.00 79 1022.2
20260903042743 55 0.0 0.0 0.00 0.00 0.00 80 1022.3
20260903041743 55 0.0 0.0 0.00 0.00 0.00 80 1022.4
20260903040743 55 0.0 0.0 0.00 0.00 0.00 81 1022.2
20260903035743 55 0.0 0.0 0.00 0.00 0.00 80 1022.2
20260903034743 55 0.0 0.0 0.00 0.00 0.00 80 1022.0
20260903033743 56 0.0 0.0 0.00 0.00 0.00 80 1021.9
20260903032743 56 0.0 0.0 0.00 0.00 0.00 81 1022.0
20260903031743 56 0.0 0.0 0.00 0.00 0.00 79 1022.1
20260903030743 56 0.0 0.0 0.00 0.00 0.00 79 1022.1
20260903025743 57 0.0 0.0 0.00 0.00 0.00 80 1022.2
20260903024743 57 0.0 0.0 0.00 0.00 0.00 79 1022.3
20260903023743 57 0.0 0.0 0.00 0.00 0.00 78 1022.2
20260903022743 57 0.0 0.0 0.00 0.00 0.00 77 1022.2
20260903021743 58 0.0 0.0 0.00 0.00 0.00 78 1022.2
20260903020743 58 0.0 0.0 0.00 0.00 0.00 76 1022.2
20260903015743 58 0.0 0.0 0.00 0.00 0.00 76 1022.2
20260903014743 58 0.0 0.0 0.00 0.00 0.00 77 1022.2
20260903013743 58 0.0 0.0 0.00 0.00 0.00 77 1022.1
20260903012743 57 0.0 0.0 0.00 0.00 0.00 80 1022.1
20260903011743 57 0.0 0.0 0.00 0.00 0.00 81 1022.1
20260903010743 57 0.0 0.0 0.00 0.00 0.00 82 1022.1
20260903005743 56 0.0 0.0 0.00 0.00 0.00 81 1022.1
20260903004744 56 0.0 0.0 0.00 0.00 0.00 80 1022.2
20260903003744 56 0.0 0.0 0.00 0.00 0.00 79 1022.1
20260903002743 56 0.0 0.0 0.00 0.00 0.00 78 1022.1
20260903001743 56 0.0 0.0 0.00 0.00 0.00 78 1022.2
20260903000745 56 0.0 0.0 0.00 0.00 0.00 78 1022.1
20260902235743 57 0.0 0.0 0.00 0.00 0.00 77 1022.2
20260902234743 56 0.0 0.0 0.00 0.00 0.00 79 1022.2
20260902233743 56 0.0 0.0 0.00 0.00 0.00 78 1022.3
20260902232743 57 0.0 0.0 0.00 0.00 0.00 77 1022.3
20260902231743 57 0.0 0.0 0.00 0.00 0.00 76 1022.3
20260902230743 57 0.0 0.0 0.00 0.00 0.00 77 1022.3
20260902225743 57 0.0 0.0 0.00 0.00 0.00 77 1022.4
20260902224743 57 0.0 0.0 0.00 0.00 0.00 75 1022.4
20260902223743 57 0.0 0.0 0.00 0.00 0.00 76 1022.4
20260902222743 58 0.0 0.0 0.00 0.00 0.00 74 1022.4
20260902221748 58 0.0 0.0 0.00 0.00 0.00 74 1022.4
20260902220741 58 0.0 0.0 0.00 0.00 0.00 73 1022.3
20260902215741 59 0.0 0.0 0.00 0.00 0.00 73 1022.4
20260902214741 59 0.0 0.0 0.00 0.00 0.00 74 1022.3
20260902213743 59 0.0 0.0 0.00 0.00 0.00 73 1022.3
20260902212741 60 0.0 0.0 0.00 0.00 0.00 71 1022.2
20260902211741 60 0.0 0.0 0.00 0.00 0.00 70 1022.2
20260902210742 60 0.0 0.0 0.00 0.00 0.00 69 1022.1
20260902205741 61 0.0 0.0 0.00 0.00 0.00 70 1022.1
20260902204741 61 0.0 0.0 0.00 0.00 0.00 69 1022.1
20260902203742 62 0.0 0.0 0.00 0.00 0.00 67 1021.9
20260902202741 62 0.0 0.0 0.00 0.00 0.00 66 1021.9
20260902201741 63 0.0 0.0 0.00 0.00 0.00 64 1021.9
20260902200741 63 0.0 0.0 0.00 0.00 0.00 63 1021.9
20260902195741 64 0.0 0.0 0.00 0.00 0.00 62 1021.9
20260902194742 65 0.0 0.0 0.00 0.00 0.00 59 1021.8
20260902193742 65 0.0 0.0 0.00 0.00 0.00 58 1021.8
20260902192742 65 0.0 0.0 0.00 0.00 0.00 58 1021.9
20260902191741 65 0.0 0.0 0.00 0.00 0.00 58 1021.8
20260902190742 66 0.0 0.0 0.00 0.00 0.00 58 1021.9
20260902185742 66 0.0 0.0 0.00 0.00 0.00 57 1021.8
20260902184742 66 0.0 0.0 0.00 0.00 0.00 58 1021.6
20260902183742 65 0.0 0.0 0.00 0.00 0.00 59 1021.6
20260902182741 65 0.0 0.0 0.00 0.00 0.00 59 1021.5
20260902181742 65 0.0 0.0 0.00 0.00 0.00 60 1021.4
20260902180741 66 0.0 0.0 0.00 0.00 0.00 57 1021.2
20260902175742 66 0.0 0.0 0.00 0.00 0.00 55 1021.2
20260902174741 67 0.0 0.0 0.00 0.00 0.00 54 1021.1
20260902173741 67 0.0 0.0 0.00 0.00 0.00 53 1021.0
20260902172742 68 0.0 0.0 0.00 0.00 0.00 52 1021.1
20260902171741 68 0.0 0.0 0.00 0.00 0.00 53 1021.0
20260902170742 69 0.0 0.0 0.00 0.00 0.00 50 1021.0
20260902165741 70 0.0 0.0 0.00 0.00 0.00 47 1021.0
20260902164741 71 0.0 0.0 0.00 0.00 0.00 47 1021.0
20260902163741 71 0.0 0.0 0.00 0.00 0.00 45 1020.9
20260902162741 70 0.0 0.0 0.00 0.00 0.00 46 1020.9
20260902161742 71 0.0 0.0 0.00 0.00 0.00 46 1020.9
20260902160741 71 0.0 0.0 0.00 0.00 0.00 44 1020.9
20260902155741 72 0.0 0.0 0.00 0.00 0.00 44 1020.9
20260902154741 73 0.0 0.0 0.00 0.00 0.00 42 1020.9
20260902153741 73 0.0 0.0 0.00 0.00 0.00 42 1020.9
20260902152741 72 0.0 0.0 0.00 0.00 0.00 44 1020.9
20260902151742 73 0.0 0.0 0.00 0.00 0.00 42 1021.0
20260902150741 74 0.0 0.0 0.00 0.00 0.00 39 1020.9
20260902145741 73 0.0 0.0 0.00 0.00 0.00 40 1021.0
20260902144741 72 0.0 0.0 0.00 0.00 0.00 41 1021.0
20260902143741 73 0.0 0.0 0.00 0.00 0.00 40 1021.1
20260902142742 74 0.0 0.0 0.00 0.00 0.00 38 1021.2
20260902141741 75 0.0 0.0 0.00 0.00 0.00 37 1021.2
20260902140742 76 0.0 0.0 0.00 0.00 0.00 37 1021.1
20260902135742 76 0.0 0.0 0.00 0.00 0.00 36 1021.2
20260902134741 75 0.0 0.0 0.00 0.00 0.00 36 1021.3
20260902133741 74 0.0 0.0 0.00 0.00 0.00 38 1021.3
20260902132742 74 0.0 0.0 0.00 0.00 0.00 39 1021.4
20260902131742 75 0.0 0.0 0.00 0.00 0.00 38 1021.3
20260902130741 76 0.0 0.0 0.00 0.00 0.00 36 1021.5
20260902125742 75 0.0 0.0 0.00 0.00 0.00 36 1021.7
20260902124741 75 0.0 0.0 0.00 0.00 0.00 37 1021.8
20260902123741 74 0.0 0.0 0.00 0.00 0.00 36 1021.8
20260902122741 73 0.0 0.0 0.00 0.00 0.00 42 1022.1
20260902121741 72 0.0 0.0 0.00 0.00 0.00 43 1022.1
20260902120742 73 0.0 0.0 0.00 0.00 0.00 40 1022.3
20260902115741 73 0.0 0.0 0.00 0.00 0.00 43 1022.3
20260902114741 72 0.0 0.0 0.00 0.00 0.00 44 1022.3
20260902113742 72 0.0 0.0 0.00 0.00 0.00 44 1022.3
20260902112742 72 0.0 0.0 0.00 0.00 0.00 44 1022.3
20260902111741 71 0.0 0.0 0.00 0.00 0.00 44 1022.4
20260902110741 71 0.0 0.0 0.00 0.00 0.00 45 1022.5
20260902105741 72 0.0 0.0 0.00 0.00 0.00 45 1022.6
20260902104741 70 0.0 0.0 0.00 0.00 0.00 45 1022.6
20260902103741 72 0.0 0.0 0.00 0.00 0.00 47 1022.8
20260902102741 74 0.0 0.0 0.00 0.00 0.00 42 1022.8
20260902101746 73 0.0 0.0 0.00 0.00 0.00 46 1022.9
20260902100740 73 0.0 0.0 0.00 0.00 0.00 48 1023.1
20260902095740 72 0.0 0.0 0.00 0.00 0.00 48 1023.3
20260902094740 71 0.0 0.0 0.00 0.00 0.00 49 1023.3
20260902093740 71 0.0 0.0 0.00 0.00 0.00 47 1023.2